FW9423 Weather Reports


Display with metric or nautical units.
time (UTC)temp
F
wind
direction
speed
MPH
gust
MPH
rain 1hr
in
rain 24hr
in
rain mn
in
humidity
%
barometer
mb
20260503225041 51 360 2.0 6.0 0.00 0.00 0.00 80 1025.4
20260503224547 51 360 2.0 6.0 0.00 0.00 0.00 80 1025.3
20260503224042 51 360 1.0 5.0 0.00 0.00 0.00 80 1025.2
20260503223542 51 0 0.0 4.0 0.00 0.00 0.00 80 1025.2
20260503223053 50 0 1.0 4.0 0.00 0.00 0.00 80 1025.0
20260503222542 50 360 2.0 4.0 0.00 0.00 0.00 80 1025.0
20260503222042 50 360 1.0 3.0 0.00 0.00 0.00 80 1024.8
20260503221550 50 360 1.0 3.0 0.00 0.00 0.00 80 1024.8
20260503221042 49 360 1.0 3.0 0.00 0.00 0.00 80 1024.8
20260503220543 49 360 1.0 4.0 0.00 0.00 0.00 80 1024.7
20260503220053 49 360 1.0 4.0 0.00 0.00 0.00 80 1024.7
20260503215541 49 360 1.0 3.0 0.00 0.00 0.00 79 1024.7
20260503215042 49 360 1.0 4.0 0.00 0.00 0.00 79 1024.6
20260503214547 49 360 1.0 4.0 0.00 0.00 0.00 79 1024.6
20260503214041 48 0 0.0 0.0 0.00 0.00 0.00 79 1024.5
20260503213542 48 0 0.0 1.0 0.00 0.00 0.00 79 1024.5
20260503213046 48 0 0.0 1.0 0.00 0.00 0.00 79 1024.4
20260503212542 47 0 0.0 1.0 0.00 0.00 0.00 80 1024.3
20260503212042 47 0 0.0 0.0 0.00 0.00 0.00 80 1024.4
20260503211610 47 0 0.0 0.0 0.00 0.00 0.00 79 1024.3
20260503211042 47 0 0.0 0.0 0.00 0.00 0.00 79 1024.3
20260503210542 47 0 0.0 0.0 0.00 0.00 0.00 79 1024.2
20260503210050 47 0 0.0 0.0 0.00 0.00 0.00 79 1024.2
20260503205542 47 0 0.0 0.0 0.00 0.00 0.00 78 1024.2
20260503205042 47 0 0.0 0.0 0.00 0.00 0.00 78 1024.2
20260503204545 47 0 0.0 0.0 0.00 0.00 0.00 78 1024.2
20260503204041 47 0 0.0 0.0 0.00 0.00 0.00 79 1024.2
20260503203542 47 0 0.0 0.0 0.00 0.00 0.00 78 1024.2
20260503203053 47 0 0.0 0.0 0.00 0.00 0.00 78 1024.1
20260503202541 47 0 0.0 0.0 0.00 0.00 0.00 78 1023.9
20260503202041 47 0 0.0 0.0 0.00 0.00 0.00 78 1024.0
20260503201548 47 0 0.0 0.0 0.00 0.00 0.00 78 1023.9
20260503201046 47 0 0.0 0.0 0.00 0.00 0.00 78 1023.9
20260503200542 47 0 0.0 0.0 0.00 0.00 0.00 77 1023.9
20260503200056 47 0 0.0 0.0 0.00 0.00 0.00 77 1023.8
20260503195542 47 0 0.0 0.0 0.00 0.00 0.00 77 1023.8
20260503195043 47 0 0.0 0.0 0.00 0.00 0.00 77 1023.8
20260503194556 47 0 0.0 0.0 0.00 0.00 0.00 77 1023.8
20260503194042 47 0 0.0 0.0 0.00 0.00 0.00 77 1023.7
20260503193542 47 0 0.0 0.0 0.00 0.00 0.00 76 1023.7
20260503193058 47 0 0.0 0.0 0.00 0.00 0.00 76 1023.7
20260503192541 48 0 0.0 0.0 0.00 0.00 0.00 76 1023.7
20260503192039 48 0 0.0 0.0 0.00 0.00 0.00 76 1023.6
20260503191555 48 0 0.0 0.0 0.00 0.00 0.00 76 1023.7
20260503191042 48 0 0.0 0.0 0.00 0.00 0.00 76 1023.5
20260503190542 48 0 0.0 0.0 0.00 0.00 0.00 76 1023.6
20260503190049 48 0 0.0 0.0 0.00 0.00 0.00 76 1023.6
20260503185541 48 0 0.0 0.0 0.00 0.00 0.00 75 1023.6
20260503185041 48 0 0.0 0.0 0.00 0.00 0.00 75 1023.6
20260503184602 49 0 0.0 0.0 0.00 0.00 0.00 75 1023.5
20260503184041 49 0 0.0 0.0 0.00 0.00 0.00 75 1023.6
20260503183541 49 0 0.0 0.0 0.00 0.00 0.00 74 1023.5
20260503183053 49 0 0.0 0.0 0.00 0.00 0.00 75 1023.5
20260503182541 49 0 0.0 0.0 0.00 0.00 0.00 74 1023.5
20260503182042 49 0 0.0 0.0 0.00 0.00 0.00 74 1023.5
20260503181613 50 0 0.0 0.0 0.00 0.00 0.00 74 1023.5
20260503181039 50 0 0.0 0.0 0.00 0.00 0.00 74 1023.6
20260503180542 50 0 0.0 0.0 0.00 0.00 0.00 74 1023.6
20260503180112 50 0 0.0 0.0 0.00 0.00 0.00 73 1023.7
20260503175541 50 0 0.0 0.0 0.00 0.00 0.00 73 1023.6
20260503175041 50 0 0.0 0.0 0.00 0.00 0.00 73 1023.7
20260503174556 51 0 0.0 0.0 0.00 0.00 0.00 72 1023.6
20260503174044 51 0 0.0 0.0 0.00 0.00 0.00 72 1023.6
20260503173543 51 0 0.0 0.0 0.00 0.00 0.00 72 1023.7
20260503173103 51 0 0.0 0.0 0.00 0.00 0.00 72 1023.8
20260503172542 51 0 0.0 0.0 0.00 0.00 0.00 72 1023.7
20260503172040 51 0 0.0 0.0 0.00 0.00 0.00 72 1023.8
20260503171549 51 0 0.0 0.0 0.00 0.00 0.00 72 1023.9
20260503171042 51 0 0.0 0.0 0.00 0.00 0.00 72 1023.8
20260503170543 51 0 0.0 0.0 0.00 0.00 0.00 72 1023.8
20260503150541 53 0 0.0 0.0 0.00 0.00 0.00 67 1023.5
20260503150103 53 0 0.0 0.0 0.00 0.00 0.00 67 1023.5
20260503131039 56 0 0.0 2.0 0.00 0.00 0.00 62 1023.3
20260503130541 56 360 0.0 2.0 0.00 0.00 0.00 62 1023.3
20260503110541 61 360 2.0 4.0 0.00 0.00 0.00 52 1022.6
20260503081553 66 360 4.0 8.0 0.00 0.00 0.00 44 1021.3
20260503081042 66 360 3.0 8.0 0.00 0.00 0.00 45 1021.3
20260503080541 66 360 4.0 10.0 0.00 0.00 0.00 44 1021.3
20260503072545 68 360 3.0 9.0 0.00 0.00 0.00 43 1021.3
20260503072041 68 360 4.0 11.0 0.00 0.00 0.00 42 1021.2
20260503071552 67 360 4.0 12.0 0.00 0.00 0.00 43 1021.1
20260503071047 67 360 6.0 12.0 0.00 0.00 0.00 44 1021.1
20260503070543 67 360 5.0 10.0 0.00 0.00 0.00 43 1021.1
20260503055043 67 360 6.0 12.0 0.00 0.00 0.00 45 1021.1
20260503054550 67 360 4.0 11.0 0.00 0.00 0.00 45 1021.1
20260503054043 68 360 5.0 13.0 0.00 0.00 0.00 44 1021.1
20260503053543 68 360 5.0 13.0 0.00 0.00 0.00 44 1021.1
20260503053050 69 360 4.0 10.0 0.00 0.00 0.00 44 1021.1
20260503052540 68 360 3.0 11.0 0.00 0.00 0.00 44 1021.2
20260503052039 68 360 4.0 11.0 0.00 0.00 0.00 43 1021.2
20260503051550 69 360 4.0 10.0 0.00 0.00 0.00 44 1021.3
20260503051042 68 360 3.0 10.0 0.00 0.00 0.00 45 1021.4
20260503050546 67 360 5.0 12.0 0.00 0.00 0.00 46 1021.4
20260503050116 68 360 5.0 13.0 0.00 0.00 0.00 45 1021.4
20260503045543 67 360 3.0 13.0 0.00 0.00 0.00 46 1021.5
20260503045042 67 360 5.0 13.0 0.00 0.00 0.00 47 1021.6
20260503044548 67 360 5.0 12.0 0.00 0.00 0.00 48 1021.6
20260503044039 66 360 6.0 14.0 0.00 0.00 0.00 50 1021.7
20260503043543 65 360 6.0 14.0 0.00 0.00 0.00 50 1021.7
20260503043054 65 360 5.0 12.0 0.00 0.00 0.00 50 1021.8
20260503042542 65 360 5.0 14.0 0.00 0.00 0.00 50 1021.8
20260503042044 66 360 6.0 14.0 0.00 0.00 0.00 50 1021.9
20260503041554 66 360 5.0 12.0 0.00 0.00 0.00 50 1022.0
20260503041042 65 360 5.0 12.0 0.00 0.00 0.00 50 1022.1
20260503040542 65 360 6.0 12.0 0.00 0.00 0.00 49 1022.2
20260503040103 66 360 6.0 10.0 0.00 0.00 0.00 50 1022.2
20260503035543 66 360 4.0 10.0 0.00 0.00 0.00 51 1022.2
20260503035043 66 360 5.0 12.0 0.00 0.00 0.00 51 1022.2
20260503034559 65 360 4.0 12.0 0.00 0.00 0.00 52 1022.4
20260503034044 65 360 6.0 12.0 0.00 0.00 0.00 52 1022.5
20260503033542 65 360 4.0 15.0 0.00 0.00 0.00 51 1022.6
20260503033053 65 360 7.0 15.0 0.00 0.00 0.00 52 1022.6
20260503032542 64 360 4.0 14.0 0.00 0.00 0.00 54 1022.7
20260503032042 64 360 7.0 14.0 0.00 0.00 0.00 53 1022.9
20260503031550 64 360 4.0 12.0 0.00 0.00 0.00 53 1022.9
20260503031042 65 360 5.0 13.0 0.00 0.00 0.00 53 1023.1
20260503030540 64 360 4.0 13.0 0.00 0.00 0.00 53 1023.1
20260503030118 63 360 7.0 13.0 0.00 0.00 0.00 54 1023.1
20260503025543 64 360 5.0 12.0 0.00 0.00 0.00 53 1023.2
20260503025045 64 360 4.0 14.0 0.00 0.00 0.00 54 1023.2
20260503024549 64 360 6.0 14.0 0.00 0.00 0.00 53 1023.3
20260503024043 64 360 7.0 14.0 0.00 0.00 0.00 53 1023.3
20260503023544 63 360 4.0 12.0 0.00 0.00 0.00 56 1023.3
20260503023048 63 360 5.0 12.0 0.00 0.00 0.00 54 1023.5
20260503022540 63 360 5.0 9.0 0.00 0.00 0.00 55 1023.4
20260503022043 63 360 4.0 12.0 0.00 0.00 0.00 55 1023.5
20260503021546 62 360 4.0 13.0 0.00 0.00 0.00 56 1023.4
20260503021043 62 360 7.0 13.0 0.00 0.00 0.00 56 1023.5
20260503020543 62 360 7.0 13.0 0.00 0.00 0.00 56 1023.4
20260503020052 62 360 5.0 13.0 0.00 0.00 0.00 56 1023.5
20260503015543 62 360 7.0 13.0 0.00 0.00 0.00 57 1023.6
20260503015042 61 360 6.0 11.0 0.00 0.00 0.00 58 1023.5
20260503014602 61 360 3.0 10.0 0.00 0.00 0.00 58 1023.6
20260503014042 61 360 4.0 13.0 0.00 0.00 0.00 59 1023.6
20260503013542 60 360 6.0 13.0 0.00 0.00 0.00 59 1023.7
20260503013053 60 360 4.0 12.0 0.00 0.00 0.00 60 1023.6
20260503012546 60 360 5.0 12.0 0.00 0.00 0.00 60 1023.6
20260503012045 60 360 4.0 11.0 0.00 0.00 0.00 61 1023.6
20260503011555 59 360 6.0 11.0 0.00 0.00 0.00 61 1023.7
20260503011041 59 360 4.0 12.0 0.00 0.00 0.00 61 1023.7
20260503010541 59 360 5.0 12.0 0.00 0.00 0.00 61 1023.7
20260503010100 59 360 4.0 11.0 0.00 0.00 0.00 63 1023.7
20260503005546 58 360 3.0 11.0 0.00 0.00 0.00 63 1023.7
20260503005045 58 360 4.0 10.0 0.00 0.00 0.00 63 1023.7
20260503004550 58 360 4.0 11.0 0.00 0.00 0.00 64 1023.6
20260503004042 57 360 5.0 11.0 0.00 0.00 0.00 64 1023.6
20260503003542 57 360 2.0 10.0 0.00 0.00 0.00 65 1023.5
20260503003117 57 360 5.0 10.0 0.00 0.00 0.00 65 1023.4
20260503002543 57 360 4.0 8.0 0.00 0.00 0.00 66 1023.4
20260503002044 56 360 3.0 9.0 0.00 0.00 0.00 67 1023.4
20260503001545 56 360 4.0 9.0 0.00 0.00 0.00 67 1023.5
20260503001044 56 360 4.0 8.0 0.00 0.00 0.00 67 1023.5
20260503000543 55 360 3.0 8.0 0.00 0.00 0.00 68 1023.4
20260503000053 55 360 3.0 9.0 0.00 0.00 0.00 69 1023.3
20260502235544 55 360 3.0 9.0 0.00 0.00 0.00 70 1023.2
20260502235041 54 360 4.0 9.0 0.00 0.00 0.00 71 1023.1
20260502234548 54 360 4.0 6.0 0.00 0.00 0.00 71 1023.2
20260502234046 53 360 2.0 6.0 0.00 0.00 0.00 72 1023.2
20260502233542 53 360 3.0 8.0 0.00 0.00 0.00 73 1023.1
20260502233047 52 360 2.0 8.0 0.00 0.00 0.00 74 1023.1
20260502232543 51 360 0.0 8.0 0.00 0.00 0.00 74 1023.1
20260502232039 51 360 3.0 8.0 0.00 0.00 0.00 75 1022.9
20260502231551 50 360 2.0 5.0 0.00 0.00 0.00 76 1022.9
20260502231044 50 360 2.0 6.0 0.00 0.00 0.00 77 1022.8
20260502230546 49 360 3.0 6.0 0.00 0.00 0.00 77 1022.9
20260502230055 48 360 3.0 5.0 0.00 0.00 0.00 78 1022.7
20260502225542 48 360 2.0 5.0 0.00 0.00 0.00 78 1022.7